User: anonymous   Login
Location: Peebles
(55.6412°N, 3.1714°W)
Time: 07:37:43
(UTC+00:00)
Language:

Cosmos 1727 Rocket - Orbit

View from above orbital plane
View from above orbital plane
View from above satellite
View from above satellite

Ground track
Ground track

The orbit data is extracted from the following two-line orbital elements,

1 16511U 86008B   21336.88737694  .00000056  00000-0  42049-4 0  9997
2 16511  82.9442  91.3121 0025037  52.2051  64.4349 13.75798194800107
Epoch (UTC): 02 December 2021 21:17:49
Eccentricity: 0.0025037
inclination: 82.9442°
perigee height: 960 km
apogee height: 997 km
right ascension of ascending node: 91.3121°
argument of perigee: 52.2051°
revolutions per day: 13.75798194
mean anomaly at epoch: 64.4349°
orbit number at epoch: 80010

The dashed part of the orbit path shows where the satellite is in the earth's shadow,  

DLR